Time,TemperatureF,DewpointF,PressureIn,WindDirection,WindDirectionDegrees,WindSpeedMPH,WindSpeedGustMPH,Humidity,HourlyPrecipIn,Conditions,Clouds,dailyrainin,SoftwareType,DateUTC
2013-07-05 00:03:00,73.6,65.8,30.02,NE,48,4.0,6.0,77,0.00,,,0.00,meteohub,2013-07-05 10:03:00,
2013-07-05 00:08:00,73.2,65.7,30.02,NE,49,1.0,6.0,77,0.00,,,0.00,meteohub,2013-07-05 10:08:00,
2013-07-05 00:13:00,73.2,65.7,30.02,ENE,63,1.0,6.0,77,0.00,,,0.00,meteohub,2013-07-05 10:13:00,
2013-07-05 00:18:00,73.0,65.5,30.02,NE,49,3.0,5.0,77,0.00,,,0.00,meteohub,2013-07-05 10:18:00,
2013-07-05 00:23:00,72.9,65.7,30.02,ENE,68,1.0,5.0,78,0.00,,,0.00,meteohub,2013-07-05 10:23:00,
2013-07-05 00:28:00,72.9,65.7,30.02,ENE,58,2.0,7.0,78,0.00,,,0.00,meteohub,2013-07-05 10:28:00,
2013-07-05 00:33:00,72.7,65.5,30.02,ENE,67,1.0,7.0,78,0.00,,,0.00,meteohub,2013-07-05 10:33:00,
2013-07-05 00:39:00,72.7,65.5,30.02,East,98,1.0,7.0,78,0.00,,,0.00,meteohub,2013-07-05 10:39:00,
2013-07-05 00:44:00,72.7,65.5,30.02,NE,44,0.0,6.0,78,0.00,,,0.00,meteohub,2013-07-05 10:44:00,
2013-07-05 00:49:00,72.3,65.1,30.01,NE,44,0.0,5.0,78,0.00,,,0.00,meteohub,2013-07-05 10:49:00,
2013-07-05 00:55:00,72.1,64.9,30.01,East,81,2.0,5.0,78,0.00,,,0.00,meteohub,2013-07-05 10:55:00,
2013-07-05 01:00:00,71.6,64.4,30.01,East,86,2.0,2.0,78,0.00,,,0.00,meteohub,2013-07-05 11:00:00,
2013-07-05 01:05:00,71.1,64.2,30.01,East,98,1.0,2.0,79,0.00,,,0.00,meteohub,2013-07-05 11:05:00,
2013-07-05 01:10:00,70.9,64.0,30.01,ESE,106,0.0,2.0,79,0.00,,,0.00,meteohub,2013-07-05 11:10:00,
2013-07-05 01:15:00,70.7,63.9,30.00,East,81,2.0,2.0,79,0.00,,,0.00,meteohub,2013-07-05 11:15:00,
2013-07-05 01:20:00,70.3,63.5,30.00,ENE,75,1.0,2.0,79,0.00,,,0.00,meteohub,2013-07-05 11:20:00,
2013-07-05 01:26:00,70.3,63.5,30.00,ENE,75,0.0,2.0,79,0.00,,,0.00,meteohub,2013-07-05 11:26:00,
2013-07-05 01:32:00,70.3,63.9,30.00,NNE,29,3.0,3.0,80,0.00,,,0.00,meteohub,2013-07-05 11:32:00,
2013-07-05 01:37:00,70.3,63.9,30.00,ENE,57,1.0,3.0,80,0.00,,,0.00,meteohub,2013-07-05 11:37:00,
2013-07-05 01:42:00,70.3,63.9,30.00,NE,53,4.0,4.0,80,0.00,,,0.00,meteohub,2013-07-05 11:42:00,
2013-07-05 01:47:00,70.7,64.2,30.00,ENE,60,5.0,5.0,80,0.00,,,0.00,meteohub,2013-07-05 11:47:00,
2013-07-05 01:52:00,70.9,64.0,30.00,NE,40,4.0,7.0,79,0.00,,,0.00,meteohub,2013-07-05 11:52:00,
2013-07-05 01:57:00,70.9,63.7,30.00,East,84,3.0,7.0,78,0.00,,,0.00,meteohub,2013-07-05 11:57:00,
2013-07-05 02:02:00,71.1,63.9,30.00,NE,41,4.0,6.0,78,0.00,,,0.00,meteohub,2013-07-05 12:02:00,
2013-07-05 02:07:00,71.2,64.0,30.00,NNE,33,3.0,6.0,78,0.00,,,0.00,meteohub,2013-07-05 12:07:00,
2013-07-05 02:12:00,71.4,64.6,30.00,ENE,67,1.0,5.0,79,0.00,,,0.00,meteohub,2013-07-05 12:12:00,
2013-07-05 02:17:00,71.4,64.6,30.00,ENE,58,0.0,5.0,79,0.00,,,0.00,meteohub,2013-07-05 12:17:00,
2013-07-05 02:22:00,71.4,64.6,30.00,ENE,65,1.0,5.0,79,0.00,,,0.00,meteohub,2013-07-05 12:22:00,
2013-07-05 02:27:00,71.4,64.6,30.00,ENE,60,2.0,3.0,79,0.00,,,0.00,meteohub,2013-07-05 12:27:00,
2013-07-05 02:33:00,71.4,64.6,30.00,ENE,60,1.0,3.0,79,0.00,,,0.00,meteohub,2013-07-05 12:33:00,
2013-07-05 02:38:00,71.2,64.4,30.00,ENE,60,0.0,3.0,79,0.00,,,0.00,meteohub,2013-07-05 12:38:00,
2013-07-05 02:43:00,71.4,64.6,30.00,ENE,67,1.0,2.0,79,0.00,,,0.00,meteohub,2013-07-05 12:43:00,
2013-07-05 02:48:00,71.1,64.2,30.00,ENE,74,0.0,2.0,79,0.00,,,0.00,meteohub,2013-07-05 12:48:00,
2013-07-05 02:53:00,70.5,63.7,30.00,East,94,2.0,2.0,79,0.00,,,0.00,meteohub,2013-07-05 12:53:00,
2013-07-05 02:59:00,70.0,63.1,30.00,ESE,104,1.0,2.0,79,0.00,,,0.00,meteohub,2013-07-05 12:59:00,
2013-07-05 03:04:00,69.6,63.1,29.99,ENE,69,2.0,2.0,80,0.00,,,0.00,meteohub,2013-07-05 13:04:00,
2013-07-05 03:09:00,69.6,63.1,29.99,East,83,1.0,2.0,80,0.00,,,0.00,meteohub,2013-07-05 13:09:00,
2013-07-05 03:14:00,69.6,63.5,29.99,ENE,72,2.0,3.0,81,0.00,,,0.00,meteohub,2013-07-05 13:14:00,
2013-07-05 03:20:00,69.6,63.1,29.99,East,80,2.0,3.0,80,0.00,,,0.00,meteohub,2013-07-05 13:20:00,
2013-07-05 03:25:00,69.8,63.3,29.99,East,91,2.0,3.0,80,0.00,,,0.00,meteohub,2013-07-05 13:25:00,
2013-07-05 03:30:00,69.6,63.1,29.99,East,98,2.0,3.0,80,0.00,,,0.00,meteohub,2013-07-05 13:30:00,
2013-07-05 03:36:00,69.6,63.1,29.99,East,84,2.0,3.0,80,0.00,,,0.00,meteohub,2013-07-05 13:36:00,
2013-07-05 03:41:00,69.6,63.1,29.99,ENE,67,2.0,3.0,80,0.00,,,0.00,meteohub,2013-07-05 13:41:00,
2013-07-05 03:46:00,69.4,62.6,29.99,ENE,69,1.0,3.0,79,0.00,,,0.00,meteohub,2013-07-05 13:46:00,
2013-07-05 03:51:00,69.4,62.6,29.99,East,94,1.0,3.0,79,0.00,,,0.00,meteohub,2013-07-05 13:51:00,
2013-07-05 03:56:00,69.4,62.6,29.99,ENE,71,2.0,3.0,79,0.00,,,0.00,meteohub,2013-07-05 13:56:00,
2013-07-05 04:02:00,69.6,62.8,29.99,East,84,1.0,3.0,79,0.00,,,0.00,meteohub,2013-07-05 14:02:00,
2013-07-05 04:07:00,69.6,62.8,29.99,East,100,2.0,3.0,79,0.00,,,0.00,meteohub,2013-07-05 14:07:00,
2013-07-05 04:12:00,69.8,63.0,29.99,ENE,73,1.0,3.0,79,0.00,,,0.00,meteohub,2013-07-05 14:12:00,
2013-07-05 04:17:00,69.8,63.0,29.99,ENE,69,1.0,3.0,79,0.00,,,0.00,meteohub,2013-07-05 14:17:00,
2013-07-05 04:24:00,70.0,62.8,29.99,ENE,77,0.0,3.0,78,0.00,,,0.00,meteohub,2013-07-05 14:24:00,
2013-07-05 04:29:00,70.0,62.8,30.00,ENE,65,1.0,3.0,78,0.00,,,0.00,meteohub,2013-07-05 14:29:00,
2013-07-05 04:34:00,70.2,63.0,29.99,ENE,72,2.0,2.0,78,0.00,,,0.00,meteohub,2013-07-05 14:34:00,
2013-07-05 04:40:00,70.2,63.0,29.99,ENE,70,0.0,3.0,78,0.00,,,0.00,meteohub,2013-07-05 14:40:00,
2013-07-05 04:45:00,70.0,62.8,29.99,ENE,69,1.0,3.0,78,0.00,,,0.00,meteohub,2013-07-05 14:45:00,
2013-07-05 04:50:00,70.0,62.8,29.99,ENE,71,0.0,3.0,78,0.00,,,0.00,meteohub,2013-07-05 14:50:00,
2013-07-05 04:55:00,69.8,62.6,29.99,East,85,1.0,2.0,78,0.00,,,0.00,meteohub,2013-07-05 14:55:00,
2013-07-05 05:00:00,69.8,63.0,29.99,NE,56,2.0,2.0,79,0.00,,,0.00,meteohub,2013-07-05 15:00:00,
2013-07-05 05:05:00,70.0,62.8,29.99,ENE,58,1.0,2.0,78,0.00,,,0.00,meteohub,2013-07-05 15:05:00,
2013-07-05 05:11:00,69.8,62.6,29.99,ENE,63,2.0,2.0,78,0.00,,,0.00,meteohub,2013-07-05 15:11:00,
2013-07-05 05:16:00,69.6,62.8,29.99,ENE,67,1.0,2.0,79,0.00,,,0.00,meteohub,2013-07-05 15:16:00,
2013-07-05 05:21:00,69.8,63.3,29.99,ENE,77,1.0,2.0,80,0.00,,,0.00,meteohub,2013-07-05 15:21:00,
2013-07-05 05:27:00,70.0,63.5,29.99,ENE,61,2.0,2.0,80,0.00,,,0.00,meteohub,2013-07-05 15:27:00,
2013-07-05 05:32:00,70.0,63.9,29.99,ENE,72,0.0,2.0,81,0.00,,,0.00,meteohub,2013-07-05 15:32:00,
2013-07-05 05:37:00,70.0,63.9,29.99,East,87,1.0,2.0,81,0.00,,,0.00,meteohub,2013-07-05 15:37:00,
2013-07-05 05:42:00,70.0,63.9,29.99,ENE,72,2.0,2.0,81,0.00,,,0.00,meteohub,2013-07-05 15:42:00,
2013-07-05 05:47:00,69.8,63.7,29.99,ENE,78,1.0,3.0,81,0.00,,,0.00,meteohub,2013-07-05 15:47:00,
2013-07-05 05:49:00,69.8,63.7,29.99,ENE,72,0.0,3.0,81,0.00,,,0.00,meteohub,2013-07-05 15:49:00,
2013-07-05 05:54:00,69.8,63.7,29.99,ENE,71,2.0,3.0,81,0.00,,,0.00,meteohub,2013-07-05 15:54:00,
2013-07-05 06:00:00,69.8,63.7,29.99,East,92,1.0,3.0,81,0.00,,,0.00,meteohub,2013-07-05 16:00:00,
2013-07-05 06:05:00,69.6,63.5,30.00,East,94,2.0,3.0,81,0.00,,,0.00,meteohub,2013-07-05 16:05:00,
2013-07-05 06:10:00,69.6,63.5,30.00,East,89,2.0,3.0,81,0.00,,,0.00,meteohub,2013-07-05 16:10:00,
2013-07-05 06:15:00,69.6,63.5,30.00,East,88,1.0,2.0,81,0.00,,,0.00,meteohub,2013-07-05 16:15:00,
2013-07-05 06:20:00,69.6,63.1,30.00,East,88,2.0,2.0,80,0.00,,,0.00,meteohub,2013-07-05 16:20:00,
2013-07-05 06:25:00,69.6,63.1,30.01,ESE,105,0.0,2.0,80,0.00,,,0.00,meteohub,2013-07-05 16:25:00,
2013-07-05 06:30:00,70.2,64.0,30.01,ESE,105,0.0,2.0,81,0.00,,,0.00,meteohub,2013-07-05 16:30:00,
2013-07-05 06:35:00,70.7,64.2,30.01,ESE,104,0.0,2.0,80,0.00,,,0.00,meteohub,2013-07-05 16:35:00,
2013-07-05 06:40:00,71.4,64.6,30.01,East,91,0.0,1.0,79,0.00,,,0.00,meteohub,2013-07-05 16:40:00,
2013-07-05 06:45:00,72.3,65.1,30.01,East,91,1.0,1.0,78,0.00,,,0.00,meteohub,2013-07-05 16:45:00,
2013-07-05 06:50:00,73.0,65.5,30.01,East,88,0.0,1.0,77,0.00,,,0.00,meteohub,2013-07-05 16:50:00,
2013-07-05 06:55:00,73.9,65.8,30.01,ENE,72,0.0,1.0,76,0.00,,,0.00,meteohub,2013-07-05 16:55:00,
2013-07-05 07:00:00,74.5,66.0,30.02,NNE,26,0.0,2.0,75,0.00,,,0.00,meteohub,2013-07-05 17:00:00,
2013-07-05 07:05:00,74.8,66.0,30.02,NNE,13,0.0,2.0,74,0.00,,,0.00,meteohub,2013-07-05 17:05:00,
2013-07-05 07:10:00,75.0,66.2,30.02,NE,36,2.0,2.0,74,0.00,,,0.00,meteohub,2013-07-05 17:10:00,
2013-07-05 07:15:00,74.8,66.4,30.02,NNE,20,1.0,4.0,75,0.00,,,0.00,meteohub,2013-07-05 17:15:00,
2013-07-05 07:20:00,75.0,66.6,30.02,North,359,1.0,4.0,75,0.00,,,0.00,meteohub,2013-07-05 17:20:00,
2013-07-05 07:26:00,75.0,66.6,30.02,NW,323,2.0,4.0,75,0.00,,,0.00,meteohub,2013-07-05 17:26:00,
2013-07-05 07:31:00,74.8,66.7,30.02,NW,316,2.0,4.0,76,0.00,,,0.00,meteohub,2013-07-05 17:31:00,
2013-07-05 07:36:00,75.0,67.3,30.02,NNE,32,1.0,4.0,77,0.00,,,0.00,meteohub,2013-07-05 17:36:00,
2013-07-05 07:41:00,75.0,67.3,30.02,NW,311,3.0,3.0,77,0.00,,,0.00,meteohub,2013-07-05 17:41:00,
2013-07-05 07:46:00,75.2,67.8,30.03,NW,316,1.0,6.0,78,0.00,,,0.00,meteohub,2013-07-05 17:46:00,
2013-07-05 07:51:00,75.0,66.9,30.03,West,262,2.0,6.0,76,0.00,,,0.00,meteohub,2013-07-05 17:51:00,
2013-07-05 07:56:00,75.2,67.1,30.02,West,277,1.0,4.0,76,0.00,,,0.00,meteohub,2013-07-05 17:56:00,
2013-07-05 08:01:00,75.4,67.3,30.03,WNW,282,0.0,3.0,76,0.00,,,0.00,meteohub,2013-07-05 18:01:00,
2013-07-05 08:06:00,75.9,67.5,30.03,WSW,250,0.0,3.0,75,0.00,,,0.00,meteohub,2013-07-05 18:06:00,
2013-07-05 08:11:00,76.3,67.5,30.03,WNW,290,0.0,2.0,74,0.00,,,0.00,meteohub,2013-07-05 18:11:00,
2013-07-05 08:13:00,76.5,67.6,30.03,NW,314,0.0,2.0,74,0.00,,,0.00,meteohub,2013-07-05 18:13:00,
2013-07-05 08:18:00,76.8,67.8,30.03,WSW,250,1.0,2.0,74,0.00,,,0.00,meteohub,2013-07-05 18:18:00,
2013-07-05 08:23:00,77.4,67.3,30.03,SSW,204,1.0,2.0,71,0.00,,,0.00,meteohub,2013-07-05 18:23:00,
2013-07-05 08:28:00,78.1,67.8,30.03,NNW,339,0.0,2.0,71,0.00,,,0.00,meteohub,2013-07-05 18:28:00,
2013-07-05 08:33:00,77.7,66.7,30.03,West,263,2.0,2.0,69,0.00,,,0.00,meteohub,2013-07-05 18:33:00,
2013-07-05 08:38:00,77.4,66.7,30.03,NNE,15,1.0,4.0,70,0.00,,,0.00,meteohub,2013-07-05 18:38:00,
2013-07-05 08:43:00,77.4,66.7,30.03,WNW,302,2.0,4.0,70,0.00,,,0.00,meteohub,2013-07-05 18:43:00,
2013-07-05 08:44:00,77.4,66.7,30.03,NW,309,2.0,4.0,70,0.00,,,0.00,meteohub,2013-07-05 18:44:00,
2013-07-05 08:49:00,77.5,66.6,30.03,North,351,0.0,4.0,69,0.00,,,0.00,meteohub,2013-07-05 18:49:00,
2013-07-05 08:54:00,78.6,68.0,30.03,WNW,298,4.0,4.0,70,0.00,,,0.00,meteohub,2013-07-05 18:54:00,
2013-07-05 08:59:00,78.6,68.4,30.03,WNW,300,4.0,5.0,71,0.00,,,0.00,meteohub,2013-07-05 18:59:00,
2013-07-05 09:04:00,78.3,68.5,30.03,NW,306,5.0,6.0,72,0.00,,,0.00,meteohub,2013-07-05 19:04:00,
2013-07-05 09:09:00,78.3,68.9,30.03,WNW,295,7.0,7.0,73,0.00,,,0.00,meteohub,2013-07-05 19:09:00,
2013-07-05 09:14:00,77.9,68.2,30.03,NW,304,4.0,8.0,72,0.00,,,0.00,meteohub,2013-07-05 19:14:00,
2013-07-05 09:20:00,78.1,69.1,30.02,WNW,295,4.0,10.0,74,0.00,,,0.00,meteohub,2013-07-05 19:20:00,
2013-07-05 09:25:00,77.9,68.5,30.02,West,281,4.0,10.0,73,0.00,,,0.00,meteohub,2013-07-05 19:25:00,
2013-07-05 09:30:00,78.1,69.1,30.02,West,278,4.0,8.0,74,0.00,,,0.00,meteohub,2013-07-05 19:30:00,
2013-07-05 09:35:00,78.4,68.7,30.02,WNW,295,5.0,8.0,72,0.00,,,0.00,meteohub,2013-07-05 19:35:00,
2013-07-05 09:40:00,78.4,69.1,30.02,WNW,300,4.0,10.0,73,0.00,,,0.00,meteohub,2013-07-05 19:40:00,
2013-07-05 09:45:00,78.8,69.4,30.02,West,270,7.0,10.0,73,0.00,,,0.00,meteohub,2013-07-05 19:45:00,
2013-07-05 09:50:00,78.8,69.1,30.02,WNW,297,4.0,10.0,72,0.00,,,0.00,meteohub,2013-07-05 19:50:00,
2013-07-05 09:55:00,79.0,69.3,30.02,WNW,294,8.0,10.0,72,0.00,,,0.00,meteohub,2013-07-05 19:55:00,
2013-07-05 10:00:00,79.0,70.0,30.02,WNW,300,6.0,11.0,74,0.00,,,0.00,meteohub,2013-07-05 20:00:00,
2013-07-05 10:05:00,79.2,69.3,30.02,WNW,300,8.0,11.0,72,0.00,,,0.00,meteohub,2013-07-05 20:05:00,
2013-07-05 10:10:00,79.3,70.3,30.02,WNW,300,12.0,12.0,74,0.00,,,0.00,meteohub,2013-07-05 20:10:00,
2013-07-05 10:15:00,79.3,70.0,30.02,NW,305,8.0,13.0,73,0.00,,,0.00,meteohub,2013-07-05 20:15:00,
2013-07-05 10:20:00,79.7,69.8,30.02,NW,323,5.0,13.0,72,0.00,,,0.00,meteohub,2013-07-05 20:20:00,
2013-07-05 10:25:00,79.5,69.6,30.02,WNW,288,6.0,13.0,72,0.00,,,0.00,meteohub,2013-07-05 20:25:00,
2013-07-05 10:30:00,79.3,70.0,30.01,NW,311,5.0,13.0,73,0.00,,,0.00,meteohub,2013-07-05 20:30:00,
2013-07-05 10:36:00,79.0,70.0,30.02,NW,316,7.0,13.0,74,0.00,,,0.00,meteohub,2013-07-05 20:36:00,
2013-07-05 10:41:00,79.0,70.0,30.02,WNW,293,5.0,11.0,74,0.00,,,0.00,meteohub,2013-07-05 20:41:00,
2013-07-05 10:46:00,78.8,69.8,30.02,WNW,296,6.0,12.0,74,0.00,,,0.00,meteohub,2013-07-05 20:46:00,
2013-07-05 10:51:00,78.6,69.6,30.02,NW,326,5.0,12.0,74,0.00,,,0.00,meteohub,2013-07-05 20:51:00,
2013-07-05 10:56:00,79.0,69.6,30.02,NW,316,4.0,11.0,73,0.00,,,0.00,meteohub,2013-07-05 20:56:00,
2013-07-05 11:01:00,79.2,70.2,30.02,West,275,7.0,11.0,74,0.00,,,0.00,meteohub,2013-07-05 21:01:00,
2013-07-05 11:06:00,79.0,70.0,30.02,WNW,285,8.0,11.0,74,0.00,,,0.00,meteohub,2013-07-05 21:06:00,
2013-07-05 11:11:00,78.6,70.0,30.02,WNW,292,6.0,11.0,75,0.00,,,0.00,meteohub,2013-07-05 21:11:00,
2013-07-05 11:16:00,78.8,70.2,30.01,West,277,4.0,11.0,75,0.00,,,0.00,meteohub,2013-07-05 21:16:00,
2013-07-05 11:21:00,78.6,70.3,30.01,WNW,294,4.0,12.0,76,0.00,,,0.00,meteohub,2013-07-05 21:21:00,
2013-07-05 11:26:00,78.4,69.8,30.01,West,273,5.0,12.0,75,0.00,,,0.00,meteohub,2013-07-05 21:26:00,
2013-07-05 11:31:00,78.4,69.8,30.01,WNW,300,5.0,12.0,75,0.00,,,0.00,meteohub,2013-07-05 21:31:00,
2013-07-05 11:36:00,78.4,70.2,30.01,West,271,3.0,11.0,76,0.00,,,0.00,meteohub,2013-07-05 21:36:00,
2013-07-05 11:41:00,78.4,70.2,30.01,WNW,286,7.0,10.0,76,0.00,,,0.00,meteohub,2013-07-05 21:41:00,
2013-07-05 11:46:00,78.4,69.8,30.01,NW,308,8.0,10.0,75,0.00,,,0.00,meteohub,2013-07-05 21:46:00,
2013-07-05 11:51:00,78.4,69.8,30.01,West,263,7.0,12.0,75,0.00,,,0.00,meteohub,2013-07-05 21:51:00,
2013-07-05 11:57:00,78.4,69.8,30.01,NW,310,6.0,12.0,75,0.00,,,0.00,meteohub,2013-07-05 21:57:00,
2013-07-05 12:02:00,78.6,70.3,30.01,WNW,291,5.0,10.0,76,0.00,,,0.00,meteohub,2013-07-05 22:02:00,
2013-07-05 12:07:00,78.4,69.8,30.01,West,271,5.0,9.0,75,0.00,,,0.00,meteohub,2013-07-05 22:07:00,
2013-07-05 12:12:00,78.4,70.2,30.01,West,274,4.0,9.0,76,0.00,,,0.00,meteohub,2013-07-05 22:12:00,
2013-07-05 12:17:00,78.4,70.2,30.01,WNW,296,4.0,9.0,76,0.00,,,0.00,meteohub,2013-07-05 22:17:00,
2013-07-05 12:22:00,78.6,70.3,30.01,West,278,6.0,9.0,76,0.00,,,0.00,meteohub,2013-07-05 22:22:00,
2013-07-05 12:27:00,78.4,69.4,30.01,NW,305,1.0,8.0,74,0.00,,,0.00,meteohub,2013-07-05 22:27:00,
2013-07-05 12:32:00,78.4,69.8,30.01,SSE,153,4.0,8.0,75,0.00,,,0.00,meteohub,2013-07-05 22:32:00,
2013-07-05 12:37:00,78.3,69.6,30.00,SW,220,1.0,7.0,75,0.00,,,0.00,meteohub,2013-07-05 22:37:00,
2013-07-05 12:42:00,78.1,70.0,30.00,South,191,1.0,5.0,76,0.00,,,0.00,meteohub,2013-07-05 22:42:00,
2013-07-05 12:47:00,78.1,70.0,30.00,WSW,240,3.0,5.0,76,0.00,,,0.00,meteohub,2013-07-05 22:47:00,
2013-07-05 12:52:00,78.1,70.3,30.00,WSW,253,0.0,5.0,77,0.00,,,0.00,meteohub,2013-07-05 22:52:00,
2013-07-05 12:57:00,78.3,70.0,30.00,West,259,4.0,5.0,76,0.00,,,0.00,meteohub,2013-07-05 22:57:00,
2013-07-05 13:02:00,78.3,70.5,30.00,SE,145,0.0,5.0,77,0.00,,,0.00,meteohub,2013-07-05 23:02:00,
2013-07-05 13:07:00,78.4,70.7,30.00,SE,143,0.0,5.0,77,0.00,,,0.00,meteohub,2013-07-05 23:07:00,
2013-07-05 13:12:00,78.4,70.7,29.99,SSE,163,3.0,5.0,77,0.00,,,0.00,meteohub,2013-07-05 23:12:00,
2013-07-05 13:17:00,78.3,70.5,29.99,South,183,1.0,4.0,77,0.00,,,0.00,meteohub,2013-07-05 23:17:00,
2013-07-05 13:22:00,77.9,70.2,29.99,SSW,210,1.0,5.0,77,0.00,,,0.00,meteohub,2013-07-05 23:22:00,
2013-07-05 13:27:00,77.9,70.2,29.99,SSE,152,3.0,8.0,77,0.00,,,0.00,meteohub,2013-07-05 23:27:00,
2013-07-05 13:28:00,77.9,70.2,29.99,SSE,163,1.0,8.0,77,0.00,,,0.00,meteohub,2013-07-05 23:28:00,
2013-07-05 13:33:00,77.7,70.0,29.99,SE,140,1.0,8.0,77,0.00,,,0.00,meteohub,2013-07-05 23:33:00,
2013-07-05 13:38:00,77.7,69.6,29.99,SSW,204,0.0,4.0,76,0.00,,,0.00,meteohub,2013-07-05 23:38:00,
2013-07-05 13:43:00,77.9,69.8,29.99,South,169,2.0,4.0,76,0.00,,,0.00,meteohub,2013-07-05 23:43:00,
2013-07-05 13:48:00,78.1,70.3,29.99,WNW,294,3.0,4.0,77,0.00,,,0.00,meteohub,2013-07-05 23:48:00,
2013-07-05 13:53:00,78.1,70.0,29.99,SW,235,2.0,4.0,76,0.00,,,0.00,meteohub,2013-07-05 23:53:00,
2013-07-05 13:58:00,78.1,70.3,29.98,WSW,258,2.0,5.0,77,0.00,,,0.00,meteohub,2013-07-05 23:58:00,
2013-07-05 14:03:00,78.3,70.5,29.98,NW,311,2.0,5.0,77,0.00,,,0.00,meteohub,2013-07-06 00:03:00,
2013-07-05 14:08:00,78.1,69.4,29.98,WNW,298,4.0,5.0,75,0.00,,,0.00,meteohub,2013-07-06 00:08:00,
2013-07-05 14:13:00,78.3,70.0,29.98,NW,309,4.0,9.0,76,0.00,,,0.00,meteohub,2013-07-06 00:13:00,
2013-07-05 14:18:00,78.3,69.6,29.98,WNW,297,6.0,9.0,75,0.00,,,0.00,meteohub,2013-07-06 00:18:00,
2013-07-05 14:23:00,78.4,69.8,29.98,WNW,290,13.0,13.0,75,0.00,,,0.00,meteohub,2013-07-06 00:23:00,
2013-07-05 14:28:00,78.4,69.8,29.98,WNW,290,11.0,14.0,75,0.00,,,0.00,meteohub,2013-07-06 00:28:00,
2013-07-05 14:30:00,78.4,69.8,29.97,WNW,293,9.0,14.0,75,0.00,,,0.00,meteohub,2013-07-06 00:30:00,
2013-07-05 14:35:00,78.4,70.2,29.97,NW,306,8.0,14.0,76,0.00,,,0.00,meteohub,2013-07-06 00:35:00,
2013-07-05 14:40:00,78.4,70.2,29.97,WNW,302,7.0,15.0,76,0.00,,,0.00,meteohub,2013-07-06 00:40:00,
2013-07-05 14:41:00,78.4,70.2,29.97,NW,321,6.0,15.0,76,0.00,,,0.00,meteohub,2013-07-06 00:41:00,
2013-07-05 14:46:00,78.6,70.0,29.97,West,269,6.0,15.0,75,0.00,,,0.00,meteohub,2013-07-06 00:46:00,
2013-07-05 14:51:00,78.6,70.0,29.97,West,273,5.0,15.0,75,0.00,,,0.00,meteohub,2013-07-06 00:51:00,
2013-07-05 14:56:00,78.6,70.0,29.97,WSW,253,6.0,14.0,75,0.00,,,0.00,meteohub,2013-07-06 00:56:00,
2013-07-05 14:57:00,78.8,70.2,29.97,WNW,300,8.0,14.0,75,0.00,,,0.00,meteohub,2013-07-06 00:57:00,
2013-07-05 15:02:00,78.8,70.2,29.96,NW,309,7.0,14.0,75,0.00,,,0.00,meteohub,2013-07-06 01:02:00,
2013-07-05 15:07:00,79.0,70.0,29.96,NNW,333,8.0,13.0,74,0.00,,,0.00,meteohub,2013-07-06 01:07:00,
2013-07-05 15:12:00,79.2,69.3,29.96,NNW,335,4.0,14.0,72,0.00,,,0.00,meteohub,2013-07-06 01:12:00,
2013-07-05 15:17:00,79.5,69.6,29.96,NW,316,5.0,14.0,72,0.00,,,0.00,meteohub,2013-07-06 01:17:00,
2013-07-05 15:22:00,79.5,69.3,29.96,WNW,300,6.0,14.0,71,0.00,,,0.00,meteohub,2013-07-06 01:22:00,
2013-07-05 15:27:00,79.7,69.4,29.96,NNW,327,8.0,13.0,71,0.00,,,0.00,meteohub,2013-07-06 01:27:00,
2013-07-05 15:32:00,79.9,69.6,29.96,WNW,290,6.0,12.0,71,0.00,,,0.00,meteohub,2013-07-06 01:32:00,
2013-07-05 15:37:00,80.1,70.2,29.96,WNW,295,4.0,13.0,72,0.00,,,0.00,meteohub,2013-07-06 01:37:00,
2013-07-05 15:42:00,80.1,69.8,29.95,NNW,331,8.0,13.0,71,0.00,,,0.00,meteohub,2013-07-06 01:42:00,
2013-07-05 15:43:00,80.1,69.8,29.95,WNW,300,8.0,13.0,71,0.00,,,0.00,meteohub,2013-07-06 01:43:00,
2013-07-05 15:48:00,79.9,69.6,29.95,WNW,303,11.0,18.0,71,0.00,,,0.00,meteohub,2013-07-06 01:48:00,
2013-07-05 15:53:00,80.1,70.2,29.95,NW,310,10.0,18.0,72,0.00,,,0.00,meteohub,2013-07-06 01:53:00,
2013-07-05 15:59:00,80.1,69.8,29.95,NW,323,10.0,18.0,71,0.00,,,0.00,meteohub,2013-07-06 01:59:00,
2013-07-05 16:04:00,80.1,70.2,29.95,WNW,295,5.0,18.0,72,0.00,,,0.00,meteohub,2013-07-06 02:04:00,
2013-07-05 16:09:00,80.2,70.0,29.95,NNW,341,3.0,17.0,71,0.00,,,0.00,meteohub,2013-07-06 02:09:00,
2013-07-05 16:10:00,80.2,70.0,29.95,WNW,293,8.0,17.0,71,0.00,,,0.00,meteohub,2013-07-06 02:10:00,
2013-07-05 16:15:00,80.2,70.0,29.95,WNW,298,5.0,16.0,71,0.00,,,0.00,meteohub,2013-07-06 02:15:00,
2013-07-05 16:20:00,79.9,69.6,29.95,WNW,300,6.0,15.0,71,0.00,,,0.00,meteohub,2013-07-06 02:20:00,
2013-07-05 16:25:00,79.5,69.6,29.95,NNW,333,4.0,16.0,72,0.00,,,0.00,meteohub,2013-07-06 02:25:00,
2013-07-05 16:30:00,79.3,70.0,29.95,NNW,328,6.0,16.0,73,0.00,,,0.00,meteohub,2013-07-06 02:30:00,
2013-07-05 16:35:00,79.2,70.2,29.95,NW,323,7.0,16.0,74,0.00,,,0.00,meteohub,2013-07-06 02:35:00,
2013-07-05 16:40:00,79.0,70.3,29.95,NW,321,6.0,16.0,75,0.00,,,0.00,meteohub,2013-07-06 02:40:00,
2013-07-05 16:45:00,79.2,70.5,29.95,WNW,294,8.0,16.0,75,0.00,,,0.00,meteohub,2013-07-06 02:45:00,
2013-07-05 16:50:00,79.3,70.7,29.95,West,274,5.0,16.0,75,0.00,,,0.00,meteohub,2013-07-06 02:50:00,
2013-07-05 16:55:00,79.9,70.9,29.95,North,1,10.0,15.0,74,0.00,,,0.00,meteohub,2013-07-06 02:55:00,
2013-07-05 17:00:00,80.2,70.9,29.95,NW,308,6.0,15.0,73,0.00,,,0.00,meteohub,2013-07-06 03:00:00,
2013-07-05 17:05:00,80.2,70.9,29.95,NW,316,4.0,15.0,73,0.00,,,0.00,meteohub,2013-07-06 03:05:00,
2013-07-05 17:10:00,79.9,70.0,29.95,NNW,331,5.0,14.0,72,0.00,,,0.00,meteohub,2013-07-06 03:10:00,
2013-07-05 17:15:00,79.9,70.5,29.95,NNW,340,6.0,14.0,73,0.00,,,0.00,meteohub,2013-07-06 03:15:00,
2013-07-05 17:18:00,80.1,70.7,29.95,NNW,335,9.0,14.0,73,0.00,,,0.00,meteohub,2013-07-06 03:18:00,
2013-07-05 17:23:00,79.5,69.6,29.95,NW,321,9.0,16.0,72,0.00,,,0.00,meteohub,2013-07-06 03:23:00,
2013-07-05 17:28:00,79.3,70.0,29.95,NNW,328,9.0,17.0,73,0.00,,,0.00,meteohub,2013-07-06 03:28:00,
2013-07-05 17:33:00,79.3,69.4,29.95,NNW,342,7.0,17.0,72,0.00,,,0.00,meteohub,2013-07-06 03:33:00,
2013-07-05 17:38:00,79.3,69.4,29.95,NW,311,1.0,17.0,72,0.00,,,0.00,meteohub,2013-07-06 03:38:00,
2013-07-05 17:43:00,79.5,69.3,29.95,WNW,298,4.0,13.0,71,0.00,,,0.00,meteohub,2013-07-06 03:43:00,
2013-07-05 17:48:00,79.5,69.3,29.95,North,352,6.0,16.0,71,0.00,,,0.00,meteohub,2013-07-06 03:48:00,
2013-07-05 17:53:00,79.2,69.3,29.96,NW,310,9.0,16.0,72,0.00,,,0.00,meteohub,2013-07-06 03:53:00,
2013-07-05 17:58:00,78.4,68.7,29.96,NNW,342,5.0,14.0,72,0.00,,,0.00,meteohub,2013-07-06 03:58:00,
2013-07-05 18:01:00,78.3,68.9,29.96,NW,304,8.0,14.0,73,0.00,,,0.00,meteohub,2013-07-06 04:01:00,
2013-07-05 18:02:00,78.1,68.7,29.96,NNW,329,4.0,14.0,73,0.00,,,0.00,meteohub,2013-07-06 04:02:00,
2013-07-05 18:03:00,78.1,68.7,29.96,North,5,10.0,14.0,73,0.00,,,0.00,meteohub,2013-07-06 04:03:00,
2013-07-05 18:08:00,77.7,68.7,29.96,NNE,27,9.0,14.0,74,0.00,,,0.00,meteohub,2013-07-06 04:08:00,
2013-07-05 18:13:00,77.5,68.9,29.96,North,351,1.0,14.0,75,0.00,,,0.00,meteohub,2013-07-06 04:13:00,
2013-07-05 18:18:00,77.5,68.9,29.96,NW,311,8.0,14.0,75,0.00,,,0.00,meteohub,2013-07-06 04:18:00,
2013-07-05 18:23:00,77.4,68.9,29.96,NNW,342,5.0,11.0,75,0.00,,,0.00,meteohub,2013-07-06 04:23:00,
2013-07-05 18:28:00,77.0,68.5,29.96,NNW,345,5.0,11.0,75,0.00,,,0.00,meteohub,2013-07-06 04:28:00,
2013-07-05 18:33:00,77.0,68.9,29.96,NNW,341,3.0,11.0,76,0.00,,,0.00,meteohub,2013-07-06 04:33:00,
2013-07-05 18:38:00,76.8,68.7,29.96,NNW,337,9.0,11.0,76,0.00,,,0.00,meteohub,2013-07-06 04:38:00,
2013-07-05 18:43:00,76.8,69.1,29.97,NW,307,3.0,11.0,77,0.00,,,0.00,meteohub,2013-07-06 04:43:00,
2013-07-05 18:48:00,76.6,68.9,29.97,NW,324,5.0,11.0,77,0.00,,,0.00,meteohub,2013-07-06 04:48:00,
2013-07-05 18:53:00,76.6,68.9,29.97,NNW,328,4.0,11.0,77,0.00,,,0.00,meteohub,2013-07-06 04:53:00,
2013-07-05 18:58:00,76.6,68.9,29.98,NNE,25,3.0,10.0,77,0.00,,,0.00,meteohub,2013-07-06 04:58:00,
2013-07-05 19:03:00,76.6,68.9,29.98,NW,307,4.0,10.0,77,0.00,,,0.00,meteohub,2013-07-06 05:03:00,
2013-07-05 19:08:00,76.5,68.7,29.98,NW,314,3.0,10.0,77,0.00,,,0.00,meteohub,2013-07-06 05:08:00,
2013-07-05 19:14:00,76.5,68.7,29.98,NW,315,2.0,10.0,77,0.00,,,0.00,meteohub,2013-07-06 05:14:00,
2013-07-05 19:19:00,76.3,68.9,29.98,WNW,294,7.0,10.0,78,0.00,,,0.00,meteohub,2013-07-06 05:19:00,
2013-07-05 19:24:00,76.3,68.9,29.98,NW,319,2.0,9.0,78,0.00,,,0.00,meteohub,2013-07-06 05:24:00,
2013-07-05 19:29:00,76.1,68.7,29.99,NW,314,3.0,9.0,78,0.00,,,0.00,meteohub,2013-07-06 05:29:00,
2013-07-05 19:34:00,75.9,68.5,29.99,NNW,328,2.0,7.0,78,0.00,,,0.00,meteohub,2013-07-06 05:34:00,
2013-07-05 19:39:00,75.9,68.5,29.99,NNW,330,1.0,7.0,78,0.00,,,0.00,meteohub,2013-07-06 05:39:00,
2013-07-05 19:44:00,75.7,68.4,29.99,NW,319,1.0,5.0,78,0.00,,,0.00,meteohub,2013-07-06 05:44:00,
2013-07-05 19:49:00,75.7,68.4,29.99,WNW,298,0.0,5.0,78,0.00,,,0.00,meteohub,2013-07-06 05:49:00,
2013-07-05 19:54:00,75.6,68.5,29.99,NE,40,0.0,4.0,79,0.00,,,0.00,meteohub,2013-07-06 05:54:00,
2013-07-05 19:59:00,75.6,68.5,29.99,NW,318,1.0,3.0,79,0.00,,,0.00,meteohub,2013-07-06 05:59:00,
2013-07-05 20:04:00,75.4,68.4,29.99,WNW,298,2.0,3.0,79,0.00,,,0.00,meteohub,2013-07-06 06:04:00,
2013-07-05 20:09:00,75.4,68.4,29.99,NW,318,2.0,3.0,79,0.00,,,0.00,meteohub,2013-07-06 06:09:00,
2013-07-05 20:14:00,75.2,68.5,29.99,North,356,1.0,4.0,80,0.00,,,0.00,meteohub,2013-07-06 06:14:00,
2013-07-05 20:19:00,75.0,68.4,30.00,ENE,63,0.0,4.0,80,0.00,,,0.00,meteohub,2013-07-06 06:19:00,
2013-07-05 20:24:00,75.0,68.4,30.00,NW,311,0.0,3.0,80,0.00,,,0.00,meteohub,2013-07-06 06:24:00,
2013-07-05 20:29:00,74.8,68.2,30.00,NW,319,1.0,3.0,80,0.00,,,0.00,meteohub,2013-07-06 06:29:00,
2013-07-05 20:34:00,74.7,68.0,30.00,NW,316,0.0,3.0,80,0.00,,,0.00,meteohub,2013-07-06 06:34:00,
2013-07-05 20:40:00,74.7,68.4,30.00,North,356,0.0,3.0,81,0.00,,,0.00,meteohub,2013-07-06 06:40:00,
2013-07-05 20:45:00,74.5,68.2,30.00,North,356,0.0,3.0,81,0.00,,,0.00,meteohub,2013-07-06 06:45:00,
2013-07-05 20:50:00,74.5,68.2,30.01,North,356,0.0,1.0,81,0.00,,,0.00,meteohub,2013-07-06 06:50:00,
2013-07-05 20:55:00,74.3,68.4,30.01,North,356,0.0,1.0,82,0.00,,,0.00,meteohub,2013-07-06 06:55:00,
2013-07-05 21:00:00,74.1,68.2,30.01,North,354,0.0,0.0,82,0.00,,,0.00,meteohub,2013-07-06 07:00:00,
2013-07-05 21:05:00,74.1,68.2,30.01,West,274,2.0,2.0,82,0.00,,,0.00,meteohub,2013-07-06 07:05:00,
2013-07-05 21:10:00,74.1,68.2,30.01,WNW,294,2.0,3.0,82,0.00,,,0.00,meteohub,2013-07-06 07:10:00,
2013-07-05 21:15:00,74.1,68.2,30.01,SE,146,2.0,4.0,82,0.00,,,0.00,meteohub,2013-07-06 07:15:00,
2013-07-05 21:20:00,74.1,68.2,30.01,WSW,240,0.0,4.0,82,0.00,,,0.00,meteohub,2013-07-06 07:20:00,
2013-07-05 21:25:00,74.1,68.2,30.02,WSW,245,1.0,4.0,82,0.00,,,0.00,meteohub,2013-07-06 07:25:00,
2013-07-05 21:30:00,74.1,68.5,30.02,SSW,207,1.0,3.0,83,0.00,,,0.00,meteohub,2013-07-06 07:30:00,
2013-07-05 21:35:00,73.9,68.4,30.02,SSW,205,0.0,2.0,83,0.00,,,0.00,meteohub,2013-07-06 07:35:00,
2013-07-05 21:40:00,73.8,68.4,30.02,SSW,193,0.0,2.0,83,0.00,,,0.00,meteohub,2013-07-06 07:40:00,
2013-07-05 21:45:00,73.6,68.4,30.02,SSW,193,0.0,1.0,84,0.00,,,0.00,meteohub,2013-07-06 07:45:00,
2013-07-05 21:50:00,73.4,68.2,30.03,WSW,242,2.0,2.0,84,0.00,,,0.00,meteohub,2013-07-06 07:50:00,
2013-07-05 21:56:00,73.2,68.2,30.03,SW,231,0.0,2.0,84,0.00,,,0.00,meteohub,2013-07-06 07:56:00,
2013-07-05 22:01:00,73.0,68.2,30.03,South,176,0.0,2.0,85,0.00,,,0.00,meteohub,2013-07-06 08:01:00,
2013-07-05 22:06:00,73.0,68.2,30.03,SE,134,1.0,2.0,85,0.00,,,0.00,meteohub,2013-07-06 08:06:00,
2013-07-05 22:11:00,72.7,67.8,30.03,SE,134,0.0,2.0,85,0.00,,,0.00,meteohub,2013-07-06 08:11:00,
2013-07-05 22:16:00,72.7,68.2,30.03,SSE,149,0.0,2.0,86,0.00,,,0.00,meteohub,2013-07-06 08:16:00,
2013-07-05 22:21:00,72.7,68.2,30.03,SSE,160,0.0,2.0,86,0.00,,,0.00,meteohub,2013-07-06 08:21:00,
2013-07-05 22:26:00,72.7,68.5,30.03,WSW,240,3.0,3.0,87,0.00,,,0.00,meteohub,2013-07-06 08:26:00,
2013-07-05 22:31:00,72.7,68.5,30.03,SW,229,1.0,3.0,87,0.00,,,0.00,meteohub,2013-07-06 08:31:00,
2013-07-05 22:36:00,72.9,68.4,30.03,WSW,251,1.0,4.0,86,0.00,,,0.00,meteohub,2013-07-06 08:36:00,
2013-07-05 22:41:00,72.9,68.4,30.03,WSW,240,0.0,4.0,86,0.00,,,0.00,meteohub,2013-07-06 08:41:00,
2013-07-05 22:46:00,72.7,68.2,30.03,SE,145,0.0,2.0,86,0.00,,,0.00,meteohub,2013-07-06 08:46:00,
2013-07-05 22:51:00,72.7,68.2,30.03,SE,140,0.0,2.0,86,0.00,,,0.00,meteohub,2013-07-06 08:51:00,
2013-07-05 22:56:00,72.3,67.8,30.03,SE,139,0.0,1.0,86,0.00,,,0.00,meteohub,2013-07-06 08:56:00,
2013-07-05 23:01:00,72.3,68.2,30.03,SE,139,0.0,1.0,87,0.00,,,0.00,meteohub,2013-07-06 09:01:00,
2013-07-05 23:06:00,72.3,68.2,30.03,SE,139,0.0,1.0,87,0.00,,,0.00,meteohub,2013-07-06 09:06:00,
2013-07-05 23:11:00,72.3,68.2,30.03,SE,140,0.0,1.0,87,0.00,,,0.00,meteohub,2013-07-06 09:11:00,
2013-07-05 23:17:00,72.1,68.0,30.03,ESE,112,1.0,1.0,87,0.00,,,0.00,meteohub,2013-07-06 09:17:00,
2013-07-05 23:22:00,71.8,67.3,30.03,ENE,77,2.0,2.0,86,0.00,,,0.00,meteohub,2013-07-06 09:22:00,
2013-07-05 23:27:00,71.4,67.1,30.03,ENE,70,2.0,3.0,86,0.00,,,0.00,meteohub,2013-07-06 09:27:00,
2013-07-05 23:32:00,71.1,66.9,30.03,ENE,68,1.0,3.0,87,0.00,,,0.00,meteohub,2013-07-06 09:32:00,
2013-07-05 23:37:00,71.1,66.9,30.03,ENE,68,0.0,3.0,87,0.00,,,0.00,meteohub,2013-07-06 09:37:00,
2013-07-05 23:42:00,71.2,67.1,30.03,ESE,103,1.0,3.0,87,0.00,,,0.00,meteohub,2013-07-06 09:42:00,
2013-07-05 23:47:00,71.1,66.9,30.03,East,84,1.0,3.0,87,0.00,,,0.00,meteohub,2013-07-06 09:47:00,
2013-07-05 23:52:00,71.2,67.5,30.03,ENE,74,1.0,3.0,88,0.00,,,0.00,meteohub,2013-07-06 09:52:00,
2013-07-05 23:57:00,71.4,67.6,30.03,East,95,0.0,3.0,88,0.00,,,0.00,meteohub,2013-07-06 09:57:00,